DECAYED

STARLINK-2372, 47912 (Decayed)

Orbit data source: Space-Track

STARLINK-2372, 47912 was a payload satellite owned by SpaceX/Seattle (US) in LEO that was launched on Sun, 14 Mar 2021 UTC via an FALCON 9 launch vehicle from the Air Force Eastern Test Range (AFETR). Payload-class satellites include a variety of spacecraft equipped with specific instruments for various scientific and technological missions. These include communications satellites like Starlink; space stations such as the ISS; scientific satellites like the Hubble; Earth observation satellites from companies like Planet Labs, Umbra, and HawkEye 360; GPS; miniature CubeSats for education and research; and military/defense satellites.

Not visible in the next 10 days
Identifier
47912, 2021-021BE
Orbit
Decayed
Country
Flag of USUS
Related business
Manufacturer
SpaceX/Seattle
Mission
Decayed Commercial Communications
Bus & Motor
STARLINK, Unknown motor
Mass
260 kg wet, ~248 kg dry
Launch date (UTC)
2021-03-14 (5 years ago)
Launch vehicle
FALCON 9
Launch site
Air Force Eastern Test Range (AFETR)
Object type
Payload
Rocket body
Debris
Shape & HBR
Box + 1 Pan, 10.1 m
Radar Cross Section
13.562 m², Large (>1 m²)

Expand to show TLE details & history
Last TLE update: 1 year ago

TLE from 1 year ago
0 STARLINK-2372
1 47912U 21021BE  25065.58816177  .06195965  12130-4  11365-2 0  9990
2 47912  53.0275  75.2875 0001081  93.6208   7.9606 16.31596776220877
Epoch: 2025-03-06T14:06Z
TLE epoch observation values (Epoch: 2025-03-06T14:06:57.176Z)
Latitude
51.66118°
Longitude
167.82829°
Altitude
193.687 km
Speed
7.797 km/s
True Right ascension
12h 16m 30s
True Declination
51° 28' 46"
Sunlit
Object was in full shadow at epoch
Visualization orbit readout
Latitude
Unknown
Longitude
Unknown
Altitude
Unknown
Speed
Unknown
Apparent Right ascension
Unknown
Apparent Declination
Unknown
Sunlit
N/A
Visualization observer readout
Local Sidereal Time
21:31:16
Azimuth
Unknown
Elevation
Unknown
Doppler factor
Unknown
Orbital elements
Apogee altitude
189.252 km
Perigee altitude
187.832 km
Semi-major axis
6,566.679 km
Eccentricity
0.00011
Inclination
53.0275°
RAAN
75.2875°
Arg. of periapsis
93.6208°
True anomaly
7.96232°
Mean anomaly
7.9606°
Eccentric anomaly
7.96146°
Mean motion
4.07873 °/min
Orbital period
88.26 mins
BSTAR
0.0011365
Loading maneuver chart data...
Computing Atmospheric mass density...

Documentation

Showing up to 5 results
|